Year,Month,Day,Hour,Minute,Value (Times are PST for temperature in C)
2013,04,11,00,00,8.90
2013,04,11,00,01,8.90
2013,04,11,00,02,8.90
2013,04,11,00,03,8.90
2013,04,11,00,04,8.90
2013,04,11,00,05,8.90
2013,04,11,00,06,8.90
2013,04,11,00,07,8.80
2013,04,11,00,08,8.80
2013,04,11,00,09,8.80
2013,04,11,00,10,8.80
2013,04,11,00,11,8.80
2013,04,11,00,12,8.80
2013,04,11,00,13,8.80
2013,04,11,00,14,8.70
2013,04,11,00,15,8.70
2013,04,11,00,16,8.70
2013,04,11,00,17,8.70
2013,04,11,00,18,8.70
2013,04,11,00,19,8.70
2013,04,11,00,20,8.70
2013,04,11,00,21,8.70
2013,04,11,00,22,8.70
2013,04,11,00,23,8.70
2013,04,11,00,24,8.70
2013,04,11,00,25,8.70
2013,04,11,00,26,8.70
2013,04,11,00,27,8.70
2013,04,11,00,28,8.60
2013,04,11,00,29,8.60
2013,04,11,00,30,8.60
2013,04,11,00,31,8.60
2013,04,11,00,32,8.60
2013,04,11,00,33,8.60
2013,04,11,00,34,8.60
2013,04,11,00,35,8.60
2013,04,11,00,36,8.60
2013,04,11,00,37,8.60
2013,04,11,00,38,8.60
2013,04,11,00,39,8.60
2013,04,11,00,40,8.60
2013,04,11,00,41,8.60
2013,04,11,00,42,8.50
2013,04,11,00,43,8.50
2013,04,11,00,44,8.50
2013,04,11,00,45,8.50
2013,04,11,00,46,8.50
2013,04,11,00,47,8.40
2013,04,11,00,48,8.50
2013,04,11,00,49,8.50
2013,04,11,00,50,8.50
2013,04,11,00,51,8.50
2013,04,11,00,52,8.50
2013,04,11,00,53,8.40
2013,04,11,00,54,8.40
2013,04,11,00,55,8.40
2013,04,11,00,56,8.40
2013,04,11,00,57,8.40
2013,04,11,00,58,8.40
2013,04,11,00,59,8.40
2013,04,11,01,00,8.40
2013,04,11,01,01,8.40
2013,04,11,01,02,8.40
2013,04,11,01,03,8.30
2013,04,11,01,04,8.30
2013,04,11,01,05,8.30
2013,04,11,01,06,8.30
2013,04,11,01,07,8.30
2013,04,11,01,08,8.30
2013,04,11,01,09,8.20
2013,04,11,01,10,8.20
2013,04,11,01,11,8.20
2013,04,11,01,12,8.20
2013,04,11,01,13,8.20
2013,04,11,01,14,8.20
2013,04,11,01,15,8.20
2013,04,11,01,16,8.20
2013,04,11,01,17,8.20
2013,04,11,01,18,8.20
2013,04,11,01,19,8.20
2013,04,11,01,20,8.20
2013,04,11,01,21,8.20
2013,04,11,01,22,8.20
2013,04,11,01,23,8.20
2013,04,11,01,24,8.20
2013,04,11,01,25,8.20
2013,04,11,01,26,8.20
2013,04,11,01,27,8.20
2013,04,11,01,28,8.20
2013,04,11,01,29,8.20
2013,04,11,01,30,8.20
2013,04,11,01,31,8.20
2013,04,11,01,32,8.20
2013,04,11,01,33,8.20
2013,04,11,01,34,8.20
2013,04,11,01,35,8.20
2013,04,11,01,36,8.20
2013,04,11,01,37,8.20
2013,04,11,01,38,8.20
2013,04,11,01,39,8.20
2013,04,11,01,40,8.20
2013,04,11,01,41,8.20
2013,04,11,01,42,8.30
2013,04,11,01,43,8.30
2013,04,11,01,44,8.30
2013,04,11,01,45,8.30
2013,04,11,01,46,8.30
2013,04,11,01,47,8.30
2013,04,11,01,48,8.30
2013,04,11,01,49,8.30
2013,04,11,01,50,8.30
2013,04,11,01,51,8.30
2013,04,11,01,52,8.30
2013,04,11,01,53,8.30
2013,04,11,01,54,8.20
2013,04,11,01,55,8.20
2013,04,11,01,56,8.20
2013,04,11,01,57,8.20
2013,04,11,01,58,8.20
2013,04,11,01,59,8.10
2013,04,11,02,00,8.20
2013,04,11,02,01,8.20
2013,04,11,02,02,8.20
2013,04,11,02,03,8.20
2013,04,11,02,04,8.20
2013,04,11,02,05,8.20
2013,04,11,02,06,8.20
2013,04,11,02,07,8.10
2013,04,11,02,08,8.10
2013,04,11,02,09,8.10
2013,04,11,02,10,8.10
2013,04,11,02,11,8.10
2013,04,11,02,12,8.10
2013,04,11,02,13,8.10
2013,04,11,02,14,8.10
2013,04,11,02,15,8.10
2013,04,11,02,16,8.10
2013,04,11,02,17,8.10
2013,04,11,02,18,8.10
2013,04,11,02,19,8.10
2013,04,11,02,20,8.10
2013,04,11,02,21,8.10
2013,04,11,02,22,8.10
2013,04,11,02,23,8.10
2013,04,11,02,24,8.10
2013,04,11,02,25,8.10
2013,04,11,02,26,8.10
2013,04,11,02,27,8.10
2013,04,11,02,28,8.10
2013,04,11,02,29,8.10
2013,04,11,02,30,8.10
2013,04,11,02,31,8.10
2013,04,11,02,32,8.10
2013,04,11,02,33,8.10
2013,04,11,02,34,8.10
2013,04,11,02,35,8.10
2013,04,11,02,36,8.10
2013,04,11,02,37,8.10
2013,04,11,02,38,8.00
2013,04,11,02,39,8.00
2013,04,11,02,40,8.00
2013,04,11,02,41,7.90
2013,04,11,02,42,7.90
2013,04,11,02,43,7.90
2013,04,11,02,44,7.90
2013,04,11,02,45,7.90
2013,04,11,02,46,7.80
2013,04,11,02,47,7.80
2013,04,11,02,48,7.80
2013,04,11,02,49,7.80
2013,04,11,02,50,7.70
2013,04,11,02,51,7.70
2013,04,11,02,52,7.70
2013,04,11,02,53,7.70
2013,04,11,02,54,7.70
2013,04,11,02,55,7.70
2013,04,11,02,56,7.70
2013,04,11,02,57,7.70
2013,04,11,02,58,7.70
2013,04,11,02,59,7.70
2013,04,11,03,00,7.70
2013,04,11,03,01,7.70
2013,04,11,03,02,7.70
2013,04,11,03,03,7.60
2013,04,11,03,04,7.60
2013,04,11,03,05,7.60
2013,04,11,03,06,7.60
2013,04,11,03,07,7.60
2013,04,11,03,08,7.60
2013,04,11,03,09,7.60
2013,04,11,03,10,7.60
2013,04,11,03,11,7.60
2013,04,11,03,12,7.60
2013,04,11,03,13,7.60
2013,04,11,03,14,7.60
2013,04,11,03,15,7.60
2013,04,11,03,16,7.60
2013,04,11,03,17,7.50
2013,04,11,03,18,7.50
2013,04,11,03,19,7.50
2013,04,11,03,20,7.50
2013,04,11,03,21,7.50
2013,04,11,03,22,7.40
2013,04,11,03,23,7.40
2013,04,11,03,24,7.40
2013,04,11,03,25,7.40
2013,04,11,03,26,7.40
2013,04,11,03,27,7.40
2013,04,11,03,28,7.40
2013,04,11,03,29,7.40
2013,04,11,03,30,7.30
2013,04,11,03,31,7.30
2013,04,11,03,32,7.30
2013,04,11,03,33,7.30
2013,04,11,03,34,7.20
2013,04,11,03,35,7.20
2013,04,11,03,36,7.10
2013,04,11,03,37,7.00
2013,04,11,03,38,7.00
2013,04,11,03,39,6.90
2013,04,11,03,40,6.90
2013,04,11,03,41,6.90
2013,04,11,03,42,6.90
2013,04,11,03,43,6.90
2013,04,11,03,44,6.90
2013,04,11,03,45,6.90
2013,04,11,03,46,7.00
2013,04,11,03,47,7.00
2013,04,11,03,48,7.00
2013,04,11,03,49,7.00
2013,04,11,03,50,6.90
2013,04,11,03,51,6.90
2013,04,11,03,52,6.90
2013,04,11,03,53,6.90
2013,04,11,03,54,6.90
2013,04,11,03,55,6.90
2013,04,11,03,56,6.90
2013,04,11,03,57,6.90
2013,04,11,03,58,6.90
2013,04,11,03,59,6.90
2013,04,11,04,00,6.90
2013,04,11,04,01,6.90
2013,04,11,04,02,6.80
2013,04,11,04,03,6.80
2013,04,11,04,04,6.80
2013,04,11,04,05,6.80
2013,04,11,04,06,6.80
2013,04,11,04,07,6.70
2013,04,11,04,08,6.70
2013,04,11,04,09,6.70
2013,04,11,04,10,6.60
2013,04,11,04,11,6.60
2013,04,11,04,12,6.60
2013,04,11,04,13,6.50
2013,04,11,04,14,6.50
2013,04,11,04,15,6.40
2013,04,11,04,16,6.40
2013,04,11,04,17,6.40
2013,04,11,04,18,6.40
2013,04,11,04,19,6.40
2013,04,11,04,20,6.40
2013,04,11,04,21,6.30
2013,04,11,04,22,6.30
2013,04,11,04,23,6.30
2013,04,11,04,24,6.30
2013,04,11,04,25,6.30
2013,04,11,04,26,6.30
2013,04,11,04,27,6.40
2013,04,11,04,28,6.40
2013,04,11,04,29,6.40
2013,04,11,04,30,6.40
2013,04,11,04,31,6.40
2013,04,11,04,32,6.50
2013,04,11,04,33,6.50
2013,04,11,04,34,6.50
2013,04,11,04,35,6.60
2013,04,11,04,36,6.60
2013,04,11,04,37,6.70
2013,04,11,04,38,6.70
2013,04,11,04,39,6.70
2013,04,11,04,40,6.80
2013,04,11,04,41,6.80
2013,04,11,04,42,6.80
2013,04,11,04,43,6.80
2013,04,11,04,44,6.80
2013,04,11,04,45,6.90
2013,04,11,04,46,6.90
2013,04,11,04,47,6.90
2013,04,11,04,48,6.90
2013,04,11,04,49,6.90
2013,04,11,04,50,6.90
2013,04,11,04,51,6.90
2013,04,11,04,52,6.90
2013,04,11,04,53,7.00
2013,04,11,04,54,7.00
2013,04,11,04,55,7.00
2013,04,11,04,56,7.00
2013,04,11,04,57,7.00
2013,04,11,04,58,7.00
2013,04,11,04,59,7.00
2013,04,11,05,00,7.00
2013,04,11,05,01,7.00
2013,04,11,05,02,6.90
2013,04,11,05,03,7.00
2013,04,11,05,04,6.90
2013,04,11,05,05,6.90
2013,04,11,05,06,6.90
2013,04,11,05,07,6.90
2013,04,11,05,08,6.90
2013,04,11,05,09,7.00
2013,04,11,05,10,7.00
2013,04,11,05,11,7.00
2013,04,11,05,12,7.00
2013,04,11,05,13,7.00
2013,04,11,05,14,7.00
2013,04,11,05,15,6.90
2013,04,11,05,16,6.90
2013,04,11,05,17,6.90
2013,04,11,05,18,6.90
2013,04,11,05,19,6.90
2013,04,11,05,20,6.90
2013,04,11,05,21,6.90
2013,04,11,05,22,6.90
2013,04,11,05,23,6.90
2013,04,11,05,24,6.80
2013,04,11,05,25,6.80
2013,04,11,05,26,6.80
2013,04,11,05,27,6.80
2013,04,11,05,28,6.80
2013,04,11,05,29,6.80
2013,04,11,05,30,6.80
2013,04,11,05,31,6.70
2013,04,11,05,32,6.70
2013,04,11,05,33,6.70
2013,04,11,05,34,6.70
2013,04,11,05,35,6.70
2013,04,11,05,36,6.70
2013,04,11,05,37,6.70
2013,04,11,05,38,6.70
2013,04,11,05,39,6.60
2013,04,11,05,40,6.60
2013,04,11,05,41,6.60
2013,04,11,05,42,6.60
2013,04,11,05,43,6.60
2013,04,11,05,44,6.60
2013,04,11,05,45,6.60
2013,04,11,05,46,6.60
2013,04,11,05,47,6.60
2013,04,11,05,48,6.60
2013,04,11,05,49,6.60
2013,04,11,05,50,6.60
2013,04,11,05,51,6.60
2013,04,11,05,52,6.60
2013,04,11,05,53,6.60
2013,04,11,05,54,6.60
2013,04,11,05,55,6.60
2013,04,11,05,56,6.60
2013,04,11,05,57,6.60
2013,04,11,05,58,6.60
2013,04,11,05,59,6.60
2013,04,11,06,00,6.60
2013,04,11,06,01,6.60
2013,04,11,06,02,6.60
2013,04,11,06,03,6.60
2013,04,11,06,04,6.60
2013,04,11,06,05,6.60
2013,04,11,06,06,6.60
2013,04,11,06,07,6.60
2013,04,11,06,08,6.60
2013,04,11,06,09,6.60
2013,04,11,06,10,6.60
2013,04,11,06,11,6.50
2013,04,11,06,12,6.50
2013,04,11,06,13,6.50
2013,04,11,06,14,6.50
2013,04,11,06,15,6.50
2013,04,11,06,16,6.50
2013,04,11,06,17,6.50
2013,04,11,06,18,6.50
2013,04,11,06,19,6.50
2013,04,11,06,20,6.50
2013,04,11,06,21,6.50
2013,04,11,06,22,6.50
2013,04,11,06,23,6.50
2013,04,11,06,24,6.50
2013,04,11,06,25,6.50
2013,04,11,06,26,6.50
2013,04,11,06,27,6.50
2013,04,11,06,28,6.40
2013,04,11,06,29,6.40
2013,04,11,06,30,6.40
2013,04,11,06,31,6.40
2013,04,11,06,32,6.40
2013,04,11,06,33,6.40
2013,04,11,06,34,6.40
2013,04,11,06,35,6.40
2013,04,11,06,36,6.40
2013,04,11,06,37,6.40
2013,04,11,06,38,6.40
2013,04,11,06,39,6.40
2013,04,11,06,40,6.40
2013,04,11,06,41,6.40
2013,04,11,06,42,6.40
2013,04,11,06,43,6.40
2013,04,11,06,44,6.40
2013,04,11,06,45,6.40
2013,04,11,06,46,6.50
2013,04,11,06,47,6.50
2013,04,11,06,48,6.50
2013,04,11,06,49,6.50
2013,04,11,06,50,6.60
2013,04,11,06,51,6.60
2013,04,11,06,52,6.60
2013,04,11,06,53,6.60
2013,04,11,06,54,6.60
2013,04,11,06,55,6.60
2013,04,11,06,56,6.60
2013,04,11,06,57,6.60
2013,04,11,06,58,6.70
2013,04,11,06,59,6.70
2013,04,11,07,00,6.70
2013,04,11,07,01,6.70
2013,04,11,07,02,6.70
2013,04,11,07,03,6.70
2013,04,11,07,04,6.70
2013,04,11,07,05,6.70
2013,04,11,07,06,6.70
2013,04,11,07,07,6.80
2013,04,11,07,08,6.80
2013,04,11,07,09,6.80
2013,04,11,07,10,6.80
2013,04,11,07,11,6.80
2013,04,11,07,12,6.80
2013,04,11,07,13,6.80
2013,04,11,07,14,6.80
2013,04,11,07,15,6.80
2013,04,11,07,16,6.80
2013,04,11,07,17,6.80
2013,04,11,07,18,6.80
2013,04,11,07,19,6.90
2013,04,11,07,20,6.90
2013,04,11,07,21,6.90
2013,04,11,07,22,6.90
2013,04,11,07,23,6.90
2013,04,11,07,24,6.90
2013,04,11,07,25,7.00
2013,04,11,07,26,7.00
2013,04,11,07,27,7.00
2013,04,11,07,28,7.10
2013,04,11,07,29,7.10
2013,04,11,07,30,7.10
2013,04,11,07,31,7.10
2013,04,11,07,32,7.10
2013,04,11,07,33,7.10
2013,04,11,07,34,7.10
2013,04,11,07,35,7.10
2013,04,11,07,36,7.10
2013,04,11,07,37,7.10
2013,04,11,07,38,7.10
2013,04,11,07,39,7.10
2013,04,11,07,40,7.10
2013,04,11,07,41,7.10
2013,04,11,07,42,7.10
2013,04,11,07,43,7.10
2013,04,11,07,44,7.10
2013,04,11,07,45,7.10
2013,04,11,07,46,7.10
2013,04,11,07,47,7.10
2013,04,11,07,48,7.10
2013,04,11,07,49,7.10
2013,04,11,07,50,7.10
2013,04,11,07,51,7.10
2013,04,11,07,52,7.10
2013,04,11,07,53,7.10
2013,04,11,07,54,7.20
2013,04,11,07,55,7.20
2013,04,11,07,56,7.20
2013,04,11,07,57,7.20
2013,04,11,07,58,7.20
2013,04,11,07,59,7.30
2013,04,11,08,00,7.30
2013,04,11,08,01,7.30
2013,04,11,08,02,7.30
2013,04,11,08,03,7.30
2013,04,11,08,04,7.30
2013,04,11,08,05,7.30
2013,04,11,08,06,7.40
2013,04,11,08,07,7.40
2013,04,11,08,08,7.40
2013,04,11,08,09,7.40
2013,04,11,08,10,7.40
2013,04,11,08,11,7.40
2013,04,11,08,12,7.40
2013,04,11,08,13,7.40
2013,04,11,08,14,7.40
2013,04,11,08,15,7.40
2013,04,11,08,16,7.40
2013,04,11,08,17,7.40
2013,04,11,08,18,7.40
2013,04,11,08,19,7.40
2013,04,11,08,20,7.50
2013,04,11,08,21,7.40
2013,04,11,08,22,7.50
2013,04,11,08,23,7.50
2013,04,11,08,24,7.50
2013,04,11,08,25,7.50
2013,04,11,08,26,7.50
2013,04,11,08,27,7.50
2013,04,11,08,28,7.50
2013,04,11,08,29,7.60
2013,04,11,08,30,7.60
2013,04,11,08,31,7.60
2013,04,11,08,32,7.60
2013,04,11,08,33,7.60
2013,04,11,08,34,7.60
2013,04,11,08,35,7.60
2013,04,11,08,36,7.60
2013,04,11,08,37,7.60
2013,04,11,08,38,7.70
2013,04,11,08,39,7.70
2013,04,11,08,40,7.70
2013,04,11,08,41,7.70
2013,04,11,08,42,7.70
2013,04,11,08,43,7.70
2013,04,11,08,44,7.70
2013,04,11,08,45,7.70
2013,04,11,08,46,7.80
2013,04,11,08,47,7.80
2013,04,11,08,48,7.80
2013,04,11,08,49,7.80
2013,04,11,08,50,7.80
2013,04,11,08,51,7.80
2013,04,11,08,52,7.80
2013,04,11,08,53,7.80
2013,04,11,08,54,7.80
2013,04,11,08,55,7.80
2013,04,11,08,56,7.80
2013,04,11,08,57,7.90
2013,04,11,08,58,7.90
2013,04,11,08,59,7.90
2013,04,11,09,00,7.90
2013,04,11,09,01,7.90
2013,04,11,09,02,7.90
2013,04,11,09,03,7.90
2013,04,11,09,04,7.90
2013,04,11,09,05,7.90
2013,04,11,09,06,7.90
2013,04,11,09,07,7.90
2013,04,11,09,08,7.90
2013,04,11,09,09,7.90
2013,04,11,09,10,8.00
2013,04,11,09,11,8.00
2013,04,11,09,12,8.00
2013,04,11,09,13,8.10
2013,04,11,09,14,8.10
2013,04,11,09,15,8.10
2013,04,11,09,16,8.10
2013,04,11,09,17,8.10
2013,04,11,09,18,8.10
2013,04,11,09,19,8.10
2013,04,11,09,20,8.10
2013,04,11,09,21,8.10
2013,04,11,09,22,8.10
2013,04,11,09,23,8.10
2013,04,11,09,24,8.00
2013,04,11,09,25,8.00
2013,04,11,09,26,8.00
2013,04,11,09,27,7.90
2013,04,11,09,28,7.90
2013,04,11,09,29,7.90
2013,04,11,09,30,7.90
2013,04,11,09,31,7.90
2013,04,11,09,32,7.90
2013,04,11,09,33,7.90
2013,04,11,09,34,7.90
2013,04,11,09,35,7.90
2013,04,11,09,36,7.90
2013,04,11,09,37,7.90
2013,04,11,09,38,7.90
2013,04,11,09,39,7.90
2013,04,11,09,40,7.90
2013,04,11,09,41,7.90
2013,04,11,09,42,8.00
2013,04,11,09,43,8.00
2013,04,11,09,44,8.00
2013,04,11,09,45,8.10
2013,04,11,09,46,8.10
2013,04,11,09,47,8.10
2013,04,11,09,48,8.20
2013,04,11,09,49,8.20
2013,04,11,09,50,8.20
2013,04,11,09,51,8.30
2013,04,11,09,52,8.30
2013,04,11,09,53,8.30
2013,04,11,09,54,8.40
2013,04,11,09,55,8.40
2013,04,11,09,56,8.50
2013,04,11,09,57,8.50
2013,04,11,09,58,8.50
2013,04,11,09,59,8.50
2013,04,11,10,00,8.60
2013,04,11,10,01,8.60
2013,04,11,10,02,8.60
2013,04,11,10,03,8.60
2013,04,11,10,04,8.60
2013,04,11,10,05,8.60
2013,04,11,10,06,8.60
2013,04,11,10,07,8.60
2013,04,11,10,08,8.60
2013,04,11,10,09,8.60
2013,04,11,10,10,8.70
2013,04,11,10,11,8.70
2013,04,11,10,12,8.60
2013,04,11,10,13,8.60
2013,04,11,10,14,8.60
2013,04,11,10,15,8.60
2013,04,11,10,16,8.60
2013,04,11,10,17,8.70
2013,04,11,10,18,8.70
2013,04,11,10,19,8.70
2013,04,11,10,20,8.70
2013,04,11,10,21,8.70
2013,04,11,10,22,8.80
2013,04,11,10,23,8.80
2013,04,11,10,24,8.80
2013,04,11,10,25,8.80
2013,04,11,10,26,8.80
2013,04,11,10,27,8.80
2013,04,11,10,28,8.80
2013,04,11,10,29,8.90
2013,04,11,10,30,8.90
2013,04,11,10,31,8.90
2013,04,11,10,32,8.90
2013,04,11,10,33,8.90
2013,04,11,10,34,8.90
2013,04,11,10,35,9.00
2013,04,11,10,36,9.00
2013,04,11,10,37,9.10
2013,04,11,10,38,9.00
2013,04,11,10,39,9.00
2013,04,11,10,40,9.00
2013,04,11,10,41,9.00
2013,04,11,10,42,8.90
2013,04,11,10,43,8.90
2013,04,11,10,44,8.90
2013,04,11,10,45,8.90
2013,04,11,10,46,8.90
2013,04,11,10,47,9.00
2013,04,11,10,48,9.00
2013,04,11,10,49,9.00
2013,04,11,10,50,9.10
2013,04,11,10,51,9.10
2013,04,11,10,52,9.10
2013,04,11,10,53,9.20
2013,04,11,10,54,9.20
2013,04,11,10,55,9.30
2013,04,11,10,56,9.30
2013,04,11,10,57,9.40
2013,04,11,10,58,9.40
2013,04,11,10,59,9.40
2013,04,11,11,00,9.50
2013,04,11,11,01,9.60
2013,04,11,11,02,9.60
2013,04,11,11,03,9.70
2013,04,11,11,04,9.70
2013,04,11,11,05,9.80
2013,04,11,11,06,9.80
2013,04,11,11,07,9.90
2013,04,11,11,08,9.90
2013,04,11,11,09,10.00
2013,04,11,11,10,10.00
2013,04,11,11,11,10.00
2013,04,11,11,12,10.00
2013,04,11,11,13,10.00
2013,04,11,11,14,10.00
2013,04,11,11,15,10.00
2013,04,11,11,16,9.90
2013,04,11,11,17,9.90
2013,04,11,11,18,9.90
2013,04,11,11,19,9.90
2013,04,11,11,20,9.90
2013,04,11,11,21,9.90
2013,04,11,11,22,9.90
2013,04,11,11,23,9.90
2013,04,11,11,24,9.80
2013,04,11,11,25,9.80
2013,04,11,11,26,9.80
2013,04,11,11,27,9.70
2013,04,11,11,28,9.70
2013,04,11,11,29,9.80
2013,04,11,11,30,9.80
2013,04,11,11,31,9.80
2013,04,11,11,32,9.80
2013,04,11,11,33,9.90
2013,04,11,11,34,10.00
2013,04,11,11,35,10.10
2013,04,11,11,36,10.20
2013,04,11,11,37,10.20
2013,04,11,11,38,10.20
2013,04,11,11,39,10.30
2013,04,11,11,40,10.40
2013,04,11,11,41,10.50
2013,04,11,11,42,10.60
2013,04,11,11,43,10.70
2013,04,11,11,44,10.80
2013,04,11,11,45,11.00
2013,04,11,11,46,11.10
2013,04,11,11,47,11.10
2013,04,11,11,48,11.10
2013,04,11,11,49,11.00
2013,04,11,11,50,11.00
2013,04,11,11,51,11.00
2013,04,11,11,52,11.00
2013,04,11,11,53,11.00
2013,04,11,11,54,11.00
2013,04,11,11,55,10.90
2013,04,11,11,56,10.90
2013,04,11,11,57,10.90
2013,04,11,11,58,10.90
2013,04,11,11,59,10.90
2013,04,11,12,00,10.90
2013,04,11,12,01,10.90
2013,04,11,12,02,10.90
2013,04,11,12,03,10.80
2013,04,11,12,04,10.70
2013,04,11,12,05,10.70
2013,04,11,12,06,10.70
2013,04,11,12,07,10.70
2013,04,11,12,08,10.70
2013,04,11,12,09,10.60
2013,04,11,12,10,10.60
2013,04,11,12,11,10.60
2013,04,11,12,12,10.50
2013,04,11,12,13,10.50
2013,04,11,12,14,10.50
2013,04,11,12,15,10.60
2013,04,11,12,16,10.60
2013,04,11,12,17,10.60
2013,04,11,12,18,10.70
2013,04,11,12,19,10.70
2013,04,11,12,20,10.70
2013,04,11,12,21,10.80
2013,04,11,12,22,10.90
2013,04,11,12,23,11.00
2013,04,11,12,24,11.20
2013,04,11,12,25,11.30
2013,04,11,12,26,11.40
2013,04,11,12,27,11.40
2013,04,11,12,28,11.40
2013,04,11,12,29,11.40
2013,04,11,12,30,11.40
2013,04,11,12,31,11.40
2013,04,11,12,32,11.30
2013,04,11,12,33,11.30
2013,04,11,12,34,11.30
2013,04,11,12,35,11.30
2013,04,11,12,36,11.30
2013,04,11,12,37,11.30
2013,04,11,12,38,11.40
2013,04,11,12,39,11.40
2013,04,11,12,40,11.50
2013,04,11,12,41,11.60
2013,04,11,12,42,11.60
2013,04,11,12,43,11.60
2013,04,11,12,44,11.70
2013,04,11,12,45,11.80
2013,04,11,12,46,11.80
2013,04,11,12,47,11.80
2013,04,11,12,48,11.80
2013,04,11,12,49,11.80
2013,04,11,12,50,11.80
2013,04,11,12,51,11.80
2013,04,11,12,52,11.80
2013,04,11,12,53,11.80
2013,04,11,12,54,11.80
2013,04,11,12,55,11.80
2013,04,11,12,56,11.80
2013,04,11,12,57,11.80
2013,04,11,12,58,11.70
2013,04,11,12,59,11.60
2013,04,11,13,00,11.50
2013,04,11,13,01,11.40
2013,04,11,13,02,11.30
2013,04,11,13,03,11.30
2013,04,11,13,04,11.20
2013,04,11,13,05,11.20
2013,04,11,13,06,11.10
2013,04,11,13,07,11.00
2013,04,11,13,08,10.90
2013,04,11,13,09,10.80
2013,04,11,13,10,10.80
2013,04,11,13,11,10.90
2013,04,11,13,12,10.90
2013,04,11,13,13,11.00
2013,04,11,13,14,11.00
2013,04,11,13,15,11.10
2013,04,11,13,16,11.10
2013,04,11,13,17,11.10
2013,04,11,13,18,11.20
2013,04,11,13,19,11.30
2013,04,11,13,20,11.40
2013,04,11,13,21,11.50
2013,04,11,13,22,11.50
2013,04,11,13,23,11.50
2013,04,11,13,24,11.40
2013,04,11,13,25,11.40
2013,04,11,13,26,11.50
2013,04,11,13,27,11.50
2013,04,11,13,28,11.50
2013,04,11,13,29,11.50
2013,04,11,13,30,11.50
2013,04,11,13,31,11.50
2013,04,11,13,32,11.50
2013,04,11,13,33,11.60
2013,04,11,13,34,11.60
2013,04,11,13,35,11.50
2013,04,11,13,36,11.50
2013,04,11,13,37,11.30
2013,04,11,13,38,11.20
2013,04,11,13,39,11.10
2013,04,11,13,40,11.10
2013,04,11,13,41,11.10
2013,04,11,13,42,11.00
2013,04,11,13,43,10.90
2013,04,11,13,44,10.90
2013,04,11,13,45,10.80
2013,04,11,13,46,10.80
2013,04,11,13,47,10.80
2013,04,11,13,48,10.80
2013,04,11,13,49,10.80
2013,04,11,13,50,10.80
2013,04,11,13,51,10.80
2013,04,11,13,52,10.80
2013,04,11,13,53,10.70
2013,04,11,13,54,10.60
2013,04,11,13,55,10.60
2013,04,11,13,56,10.50
2013,04,11,13,57,10.40
2013,04,11,13,58,10.40
2013,04,11,13,59,10.30
2013,04,11,14,00,10.30
2013,04,11,14,01,10.20
2013,04,11,14,02,10.20
2013,04,11,14,03,10.20
2013,04,11,14,04,10.30
2013,04,11,14,05,10.30
2013,04,11,14,06,10.20
2013,04,11,14,07,10.20
2013,04,11,14,08,10.20
2013,04,11,14,09,10.20
2013,04,11,14,10,10.30
2013,04,11,14,11,10.30
2013,04,11,14,12,10.30
2013,04,11,14,13,10.30
2013,04,11,14,14,10.20
2013,04,11,14,15,10.20
2013,04,11,14,16,10.20
2013,04,11,14,17,10.20
2013,04,11,14,18,10.20
2013,04,11,14,19,10.20
2013,04,11,14,20,10.20
2013,04,11,14,21,10.20
2013,04,11,14,22,10.30
2013,04,11,14,23,10.30
2013,04,11,14,24,10.30
2013,04,11,14,25,10.40
2013,04,11,14,26,10.40
2013,04,11,14,27,10.40
2013,04,11,14,28,10.40
2013,04,11,14,29,10.50
2013,04,11,14,30,10.60
2013,04,11,14,31,10.70
2013,04,11,14,32,10.70
2013,04,11,14,33,10.80
2013,04,11,14,34,10.80
2013,04,11,14,35,10.80
2013,04,11,14,36,10.80
2013,04,11,14,37,10.90
2013,04,11,14,38,11.00
2013,04,11,14,39,11.00
2013,04,11,14,40,11.00
2013,04,11,14,41,11.00
2013,04,11,14,42,10.90
2013,04,11,14,43,10.80
2013,04,11,14,44,10.80
2013,04,11,14,45,10.70
2013,04,11,14,46,10.60
2013,04,11,14,47,10.50
2013,04,11,14,48,10.40
2013,04,11,14,49,10.40
2013,04,11,14,50,10.40
2013,04,11,14,51,10.40
2013,04,11,14,52,10.40
2013,04,11,14,53,10.30
2013,04,11,14,54,10.30
2013,04,11,14,55,10.30
2013,04,11,14,56,10.30
2013,04,11,14,57,10.30
2013,04,11,14,58,10.30
2013,04,11,14,59,10.30
2013,04,11,15,00,10.30
2013,04,11,15,01,10.30
2013,04,11,15,02,10.40
2013,04,11,15,03,10.40
2013,04,11,15,04,10.50
2013,04,11,15,05,10.50
2013,04,11,15,06,10.60
2013,04,11,15,07,10.60
2013,04,11,15,08,10.60
2013,04,11,15,09,10.80
2013,04,11,15,10,10.80
2013,04,11,15,11,10.90
2013,04,11,15,12,11.00
2013,04,11,15,13,11.10
2013,04,11,15,14,11.10
2013,04,11,15,15,11.10
2013,04,11,15,16,11.10
2013,04,11,15,17,11.20
2013,04,11,15,18,11.30
2013,04,11,15,19,11.30
2013,04,11,15,20,11.30
2013,04,11,15,21,11.30
2013,04,11,15,22,11.30
2013,04,11,15,23,11.30
2013,04,11,15,24,11.30
2013,04,11,15,25,11.30
2013,04,11,15,26,11.30
2013,04,11,15,27,11.30
2013,04,11,15,28,11.30
2013,04,11,15,29,11.20
2013,04,11,15,30,11.20
2013,04,11,15,31,11.20
2013,04,11,15,32,11.20
2013,04,11,15,33,11.20
2013,04,11,15,34,11.20
2013,04,11,15,35,11.20
2013,04,11,15,36,11.20
2013,04,11,15,37,11.20
2013,04,11,15,38,11.20
2013,04,11,15,39,11.20
2013,04,11,15,40,11.20
2013,04,11,15,41,11.20
2013,04,11,15,42,11.20
2013,04,11,15,43,11.20
2013,04,11,15,44,11.20
2013,04,11,15,45,11.20
2013,04,11,15,46,11.30
2013,04,11,15,47,11.20
2013,04,11,15,48,11.20
2013,04,11,15,49,11.10
2013,04,11,15,50,11.10
2013,04,11,15,51,11.00
2013,04,11,15,52,10.90
2013,04,11,15,53,10.90
2013,04,11,15,54,10.90
2013,04,11,15,55,10.90
2013,04,11,15,56,10.90
2013,04,11,15,57,10.90
2013,04,11,15,58,10.90
2013,04,11,15,59,10.90
2013,04,11,16,00,10.90
2013,04,11,16,01,10.90
2013,04,11,16,02,10.90
2013,04,11,16,03,11.00
2013,04,11,16,04,11.10
2013,04,11,16,05,11.20
2013,04,11,16,06,11.20
2013,04,11,16,07,11.10
2013,04,11,16,08,11.10
2013,04,11,16,09,11.10
2013,04,11,16,10,11.00
2013,04,11,16,11,11.00
2013,04,11,16,12,10.90
2013,04,11,16,13,10.80
2013,04,11,16,14,10.80
2013,04,11,16,15,10.80
2013,04,11,16,16,10.80
2013,04,11,16,17,10.80
2013,04,11,16,18,10.70
2013,04,11,16,19,10.70
2013,04,11,16,20,10.60
2013,04,11,16,21,10.60
2013,04,11,16,22,10.60
2013,04,11,16,23,10.60
2013,04,11,16,24,10.60
2013,04,11,16,25,10.60
2013,04,11,16,26,10.60
2013,04,11,16,27,10.60
2013,04,11,16,28,10.60
2013,04,11,16,29,10.60
2013,04,11,16,30,10.60
2013,04,11,16,31,10.60
2013,04,11,16,32,10.60
2013,04,11,16,33,10.50
2013,04,11,16,34,10.50
2013,04,11,16,35,10.50
2013,04,11,16,36,10.60
2013,04,11,16,37,10.60
2013,04,11,16,38,10.70
2013,04,11,16,39,10.80
2013,04,11,16,40,10.80
2013,04,11,16,41,11.00
2013,04,11,16,42,11.10
2013,04,11,16,43,11.20
2013,04,11,16,44,11.30
2013,04,11,16,45,11.40
2013,04,11,16,46,11.40
2013,04,11,16,47,11.40
2013,04,11,16,48,11.40
2013,04,11,16,49,11.40
2013,04,11,16,50,11.30
2013,04,11,16,51,11.30
2013,04,11,16,52,11.30
2013,04,11,16,53,11.30
2013,04,11,16,54,11.20
2013,04,11,16,55,11.10
2013,04,11,16,56,11.00
2013,04,11,16,57,10.90
2013,04,11,16,58,10.90
2013,04,11,16,59,10.90
2013,04,11,17,00,10.90
2013,04,11,17,01,11.00
2013,04,11,17,02,11.00
2013,04,11,17,03,11.00
2013,04,11,17,04,11.00
2013,04,11,17,05,11.00
2013,04,11,17,06,11.00
2013,04,11,17,07,11.00
2013,04,11,17,08,10.90
2013,04,11,17,09,10.80
2013,04,11,17,10,10.80
2013,04,11,17,11,10.80
2013,04,11,17,12,10.70
2013,04,11,17,13,10.70
2013,04,11,17,14,10.70
2013,04,11,17,15,10.70
2013,04,11,17,16,10.70
2013,04,11,17,17,10.70
2013,04,11,17,18,10.70
2013,04,11,17,19,10.70
2013,04,11,17,20,10.70
2013,04,11,17,21,10.70
2013,04,11,17,22,10.80
2013,04,11,17,23,10.80
2013,04,11,17,24,10.90
2013,04,11,17,25,11.00
2013,04,11,17,26,11.10
2013,04,11,17,27,11.20
2013,04,11,17,28,11.30
2013,04,11,17,29,11.40
2013,04,11,17,30,11.40
2013,04,11,17,31,11.40
2013,04,11,17,32,11.40
2013,04,11,17,33,11.40
2013,04,11,17,34,11.30
2013,04,11,17,35,11.40
2013,04,11,17,36,11.30
2013,04,11,17,37,11.30
2013,04,11,17,38,11.30
2013,04,11,17,39,11.30
2013,04,11,17,40,11.40
2013,04,11,17,41,11.40
2013,04,11,17,42,11.40
2013,04,11,17,43,11.30
2013,04,11,17,44,11.30
2013,04,11,17,45,11.30
2013,04,11,17,46,11.30
2013,04,11,17,47,11.40
2013,04,11,17,48,11.40
2013,04,11,17,49,11.40